Regional Weather Roundup
Issued by NWS

Home | Current Version | Previous Version | Text Only | Print | Product List | Glossary Off
Versions: 1 2 3 4 5 6 7 8 9 10 11 12 13 14 15 16 17 18 19 20 21 22 23 24 25 26 27 28 29 30 31 32 33 34 35 36 37 38 39 40 41 42 43 44 45 46 47 48 49 50

000
ASUS43 KLMK 202010
RWRKY
KENTUCKY REGIONAL WEATHER ROUNDUP
NATIONAL WEATHER SERVICE LOUISVILLE KY
400 PM EDT WED AUG 20 2014

NOTE "FAIR" INDICATES FEW OR NO CLOUDS BELOW 12,000 FEET
WITH NO SIGNIFICANT WEATHER AND/OR OBSTRUCTIONS TO VISIBILITY.

KYZ001>023-026-027-061>063-070>075-202100-
WESTERN AND SOUTH CENTRAL KENTUCKY

CITY           SKY/WX    TMP DP  RH WIND       PRES   REMARKS
PADUCAH        MOSUNNY   95  75  52 W6        29.96F HX 107
HENDERSON      CLOUDY    86  73  66 N10       29.97F HX  93
OWENSBORO      PTSUNNY   87  74  65 N14       29.96F HX  95
HOPKINSVILLE   MOSUNNY   93  71  48 W13G20    29.96F HX 100
BOWLING GREEN  CLOUDY    93  74  53 VRB5      29.96F HX 103
GLASGOW        PTSUNNY   88  75  65 NW5       29.97S HX  97
$$

KYZ024-025-028>034-038-045-046-053-202100-
NORTH CENTRAL KENTUCKY

CITY           SKY/WX    TMP DP  RH WIND       PRES   REMARKS
LOUISVILLE/SDF CLOUDY    88  71  57 NW13G24   29.95F HX  94
LOUISVILLE/LOU CLOUDY    88  70  55 NW17G24   29.96F HX  93
FORT KNOX      CLOUDY    85  76  75 W12       29.97F HX  94
$$

KYZ035>037-039>044-047>052-055>060-089>105-202100-
NORTHEAST KENTUCKY

CITY           SKY/WX    TMP DP  RH WIND       PRES   REMARKS
LEXINGTON      CLOUDY    89  73  59 W8        29.98F HX  97
COVINGTON      CLOUDY    83  68  60 W9        29.98S
FRANKFORT      CLOUDY    86  71  60 W9        29.97F HX  91
$$

KYZ054-064>069-076>088-106>120-202100-
SOUTHEAST KENTUCKY

CITY           SKY/WX    TMP DP  RH WIND       PRES   REMARKS
JACKSON        SUNNY     86  72  62 W6        30.00F HX  92
LONDON         PTSUNNY   89  71  55 W9        29.99F HX  95
SOMERSET       PTSUNNY   84  72  65 N5        30.00F
MIDDLESBORO    PTSUNNY   86  73  65 S5        30.00F HX  93
MONTICELLO     PTCLDY    89  77  67 W6        30.01F HX 101
$$




USA.gov is the U.S. government's official web portal to all federal, state and local government web resources and services.